Location: Wrocław
(51.1046°N, 17.0456°E)
Time: 05:26:00
(UTC+02:00)

ISS - Visible Passes

Search period start: 28 May 2018 00:00
Search period end: 07 June 2018 00:00
Orbit: 402 x 407 km, 51.6° (Epoch: 28 May)

Date Brightness Start Highest point End Pass type
(mag) Time Alt. Az. Time Alt. Az. Time Alt. Az.
28 May -1.8 01:07:18 10° W 01:08:21 17° W 01:08:21 17° W visible
28 May -3.8 22:38:23 10° W 22:41:41 84° N 22:44:58 10° E visible
29 May -3.2 00:14:57 10° W 00:17:42 38° SW 00:17:42 38° SW visible
29 May -3.7 21:46:08 10° W 21:49:26 79° N 21:52:43 10° E visible
29 May -3.8 23:22:40 10° W 23:25:54 58° SSW 23:27:06 33° SE visible
30 May -3.9 22:30:25 10° W 22:33:41 77° SSW 22:36:30 13° ESE visible
31 May -2.2 00:07:10 10° W 00:09:08 22° SW 00:09:08 22° SW visible
31 May -3.8 21:38:09 10° W 21:41:27 88° NNE 21:44:43 10° E visible
31 May -3.1 23:14:44 10° W 23:17:45 35° SSW 23:18:35 30° S visible
01 Jun -3.5 22:22:24 10° W 22:25:35 51° SSW 22:28:02 16° SE visible
01 Jun -1.4 23:59:54 10° WSW 00:00:40 12° WSW 00:00:40 12° WSW visible
02 Jun -2.2 23:06:57 10° W 23:09:28 20° SW 23:10:09 19° SSW visible
03 Jun -2.7 22:14:25 10° W 22:17:21 30° SSW 22:19:40 14° SSE visible
04 Jun -1.4 23:00:01 10° WSW 23:01:00 11° SW 23:01:50 10° SSW visible
05 Jun -1.8 22:06:40 10° W 22:08:57 18° SW 22:11:13 10° S visible
